Flag for Canada Weather past 2 weeks in Happy Valley-Goose Bay, Newfoundland and Labrador, Canada

Now
27 °F

Clear.


Feels Like: 20 °F
Forecast: 29 / 42 °F
Wind: 6 mph from West

Location: Goose

Current Time: Oct 22, 2014 at 4:58:19 AM

Latest Report: Oct 22, 2014 at 4:00 AM


Visibility: 15 mi

Pressure: 30.40 "Hg

Humidity: 74%

Dew point: 19 °F

Location of Happy Valley-Goose BayLocation

Historic Weather in Happy Valley-Goose Bay — Graph

°F

Happy Valley-Goose Bay temperature yesterday

Maximum temperature yesterday: 41 °F (at 3:00 PM)
Minimum temperature yesterday: 34 °F (at 6:00 AM)
Average temperature yesterday: 37 °F

Past Weeks' High & Low Weather Summary

 TemperatureHumidityPressure
High64 °F (Oct 7, 4:00 PM)100% (Oct 15, 3:00 AM)30.38 "Hg (Oct 15, 3:00 AM)
Low27 °F (Oct 22, 3:00 AM)34% (Oct 7, 4:00 PM)29.08 "Hg (Oct 20, 4:00 PM)
Average44 °F77%29.82 "Hg
* Reported Oct 7 3:00 AM — Oct 22 3:00 AM, Happy Valley-Goose Bay, Weather by CustomWeather, © 2014

Note: Actual official high and low records may vary slightly from our data, if they occured in-between our weather recording intervals... More about our weather records

Advertising

Happy Valley-Goose Bay weather history for previous 24 hours

 ConditionsComfort  
Time TempWeatherWind HumidityBarometerVisibility
3:00 AM
Oct 22
27 °FPassing clouds.5 mph80%30.38 "Hg15 mi
2:00 AM28 °FPassing clouds.3 mph74%30.37 "Hg15 mi
1:00 AM28 °FPassing clouds.9 mph74%30.34 "Hg15 mi
12:00 AM32 °FPassing clouds.9 mph64%30.32 "Hg15 mi
11:00 PM
Oct 21
34 °FPassing clouds.5 mph70%30.29 "Hg15 mi
10:00 PM34 °FPassing clouds.5 mph70%30.27 "Hg15 mi
9:00 PM34 °FPassing clouds.9 mph65%30.24 "Hg15 mi
8:00 PM34 °FPassing clouds.9 mph70%30.20 "Hg15 mi
7:00 PM36 °FPassing clouds.8 mph70%30.16 "Hg15 mi
6:00 PM37 °FScattered clouds.8 mph70%30.11 "Hg15 mi
5:00 PM39 °FSprinkles. Partly sunny.8 mph65%30.07 "Hg15 mi
4:00 PM41 °FPartly sunny.10 mph61%30.04 "Hg15 mi
3:00 PM41 °FBroken clouds.10 mph66%30.02 "Hg15 mi
2:00 PM39 °FBroken clouds.10 mph65%29.99 "Hg15 mi
1:00 PM39 °FBroken clouds.14 mph70%29.97 "Hg15 mi
12:00 PM39 °FSprinkles. Broken clouds.14 mph70%29.95 "Hg15 mi
11:00 AM39 °FSprinkles. Broken clouds.12 mph75%29.91 "Hg15 mi
10:00 AM37 °FPartly sunny.10 mph81%29.87 "Hg15 mi
9:51 AMN/APartly sunny.10 mphN/AN/A15 mi
9:00 AM36 °FSprinkles. Passing clouds.10 mph81%29.82 "Hg15 mi
8:00 AM36 °FPartly cloudy.9 mph81%29.78 "Hg15 mi
7:00 AM36 °FPassing clouds.10 mph81%29.74 "Hg15 mi
6:00 AM34 °FPartly cloudy.9 mph87%29.70 "Hg15 mi
5:00 AM36 °FPassing clouds.10 mph81%29.66 "Hg15 mi
4:00 AM36 °FPassing clouds.10 mph81%29.60 "Hg15 mi
Weather by CustomWeather, © 2014

See weather overviewHow to use our weather pages